Aulavik National Park, Northwest Territories

11:08 PM MDT on April 23, 2017 (GMT -0600)
Aulavik National Park

Weather History for CWSQ - August, 2013

Change the Weather History Date:

Wednesday, August 28, 2013

  Actual Average Record
Temperature  
Mean Temperature 25 °F -  
Max Temperature 30 °F - - ()
Min Temperature 20 °F - - ()
Degree Days  
Heating Degree Days 40    
Moisture  
Dew Point 22 °F    
Average Humidity 87    
Maximum Humidity 97    
Minimum Humidity 65    
Precipitation  
Precipitation 0.00 in - - ()
Sea Level Pressure  
Sea Level Pressure 30.01 in    
Wind  
Wind Speed 9 mph ()    
Max Wind Speed 18 mph    
Max Gust Speed -    
T = Trace of Precipitation, MM = Missing Value Source: Averaged Metar Reports

Daily Weather History Graph

Daily Weather History Graph

Search for Another Location

Airport or City:

Trip Planner

Search our weather history database for the weather conditions in past years. The results will help you decide how hot, cold, wet, or windy it might be!

Date:

Astronomy

Aug. 28, 2013 Rise Set
Actual Time 5:20 AM MDT 10:37 PM MDT
Civil Twilight 2:44 AM MDT 12:56 AM MDT
Nautical Twilight Sun does not set Sun does not set
Astronomical Twilight Sun does not set Sun does not set
Moon No Moon Rise No Moon Set
Length of Visible Light 22h 12m
Length of Day
17h 17m
Waning Gibbous, 47% of the Moon is Illuminated
Aug 28
Waning Gibbous
Sep 5
New
Sep 12
First Quarter
Sep 19
Full
Sep 26
Last Quarter

Hourly Weather History & Observations

Time (MDT) Temp. Windchill Dew Point Humidity Pressure Visibility Wind Dir Wind Speed Gust Speed Precip Events Conditions
12:00 AM 22 °F - 21 °F 96% 30.02 in - NNW 11.5 mph - -  
12:00 AM 22.3 °F 10.2 °F 21.4 °F 96% - - NW 12.7 mph - N/A   Unknown
1:00 AM 20.8 °F 10.4 °F 19.6 °F 95% - - NW 9.2 mph - N/A   Unknown
2:00 AM 21.0 °F 10.6 °F 19.8 °F 95% 30.03 in - WNW 9.2 mph - N/A   Unknown
3:00 AM 20.3 °F 11.5 °F 18.1 °F 91% 30.03 in - NW 6.9 mph - N/A   Unknown
4:00 AM 20.7 °F 11.0 °F 19.0 °F 93% 30.02 in - WNW 8.1 mph - N/A   Unknown
5:00 AM 21.0 °F 8.6 °F 19.8 °F 95% 30.02 in - NW 12.7 mph - N/A   Unknown
6:00 AM 22 °F - 21 °F 95% 30.02 in - WNW 17.9 mph - -  
6:00 AM 22.3 °F 12.2 °F 21.4 °F 96% 30.02 in - WNW 9.2 mph - N/A   Unknown
7:00 AM 22.5 °F 13.2 °F 21.7 °F 97% 30.02 in - WNW 8.1 mph - N/A   Unknown
8:00 AM 23.5 °F 14.5 °F 21.7 °F 93% 30.01 in - WNW 8.1 mph - N/A   Unknown
9:00 AM 24.3 °F 17.3 °F 21.0 °F 87% 30.01 in - West 5.8 mph - N/A   Unknown
10:00 AM 25.0 °F 18.1 °F 20.8 °F 84% 30.01 in - WNW 5.8 mph - N/A   Unknown
2:00 PM 30.6 °F 21.2 °F 24.3 °F 77% 30.00 in - WNW 11.5 mph - N/A   Unknown
4:00 PM 28.6 °F 17.2 °F 23.4 °F 81% 30.00 in - West 15.0 mph - N/A   Unknown
5:00 PM 30.0 °F 20.0 °F 23.9 °F 78% 30.00 in - NW 12.7 mph - N/A   Unknown
6:00 PM 30 °F - 23 °F 65% 30.00 in - NW 15.0 mph - -  
6:00 PM 30.4 °F 20.0 °F 22.8 °F 73% 30.00 in - NW 13.8 mph - N/A   Unknown
8:00 PM 29.3 °F 20.8 °F 23.5 °F 79% 30.00 in - NNW 9.2 mph - N/A   Unknown
9:00 PM 28.4 °F 18.5 °F 23.0 °F 80% 29.99 in - NW 11.5 mph - N/A   Unknown
10:00 PM 28.0 °F 20.0 °F 22.3 °F 79% 30.00 in - NNW 8.1 mph - N/A   Unknown
11:00 PM 28.0 °F 20.0 °F 23.0 °F 81% - - NW 8.1 mph - N/A   Unknown